| time (UTC) | temp F | wind direction | speed MPH | gust MPH | rain 1hr in | rain 24hr in | rain mn in | humidity % | barometer mb |
| 20260503185246 | 72 | 21 | 6.0 | 11.0 | 0.00 | 0.00 | 0.00 | 59 | 1010.7 |
| 20260503184346 | 72 | 18 | 6.0 | 10.0 | 0.00 | 0.00 | 0.00 | 61 | 1010.8 |
| 20260503183447 | 71 | 10 | 5.0 | 9.0 | 0.00 | 0.00 | 0.00 | 62 | 1010.9 |
| 20260503182545 | 70 | 16 | 6.0 | 9.0 | 0.00 | 0.00 | 0.00 | 63 | 1011.0 |
| 20260503181646 | 69 | 8 | 6.0 | 9.0 | 0.00 | 0.00 | 0.00 | 63 | 1011.1 |
| 20260503180745 | 68 | 14 | 7.0 | 11.0 | 0.00 | 0.00 | 0.00 | 64 | 1011.1 |
| 20260503175846 | 68 | 29 | 6.0 | 11.0 | 0.00 | 0.00 | 0.00 | 64 | 1011.1 |
| 20260503173145 | 68 | 36 | 9.0 | 19.0 | 0.00 | 0.00 | 0.00 | 62 | 1011.3 |
| 20260503172246 | 67 | 40 | 8.0 | 14.0 | 0.00 | 0.00 | 0.00 | 62 | 1011.3 |
| 20260503171345 | 67 | 51 | 9.0 | 15.0 | 0.00 | 0.00 | 0.00 | 62 | 1011.4 |
| 20260503170446 | 66 | 46 | 9.0 | 16.0 | 0.00 | 0.00 | 0.00 | 62 | 1011.5 |
| 20260503150745 | 64 | 105 | 9.0 | 18.0 | 0.00 | 0.00 | 0.00 | 62 | 1011.8 |
| 20260503131045 | 58 | 68 | 4.0 | 10.0 | 0.00 | 0.00 | 0.00 | 80 | 1011.3 |
| 20260503130145 | 58 | 49 | 5.0 | 12.0 | 0.00 | 0.00 | 0.00 | 80 | 1011.4 |
| 20260503110445 | 59 | 92 | 6.0 | 11.0 | 0.00 | 0.00 | 0.00 | 83 | 1011.8 |
| 20260503100146 | 58 | 96 | 3.0 | 5.0 | 0.00 | 0.00 | 0.00 | 85 | 1012.1 |
| 20260503081345 | 60 | 95 | 1.0 | 3.0 | 0.00 | 0.00 | 0.00 | 84 | 1012.1 |
| 20260503080445 | 60 | 98 | 2.0 | 3.0 | 0.00 | 0.00 | 0.00 | 85 | 1012.1 |
| 20260503072845 | 60 | 152 | 3.0 | 5.0 | 0.00 | 0.00 | 0.00 | 82 | 1012.1 |
| 20260503071945 | 63 | 116 | 5.0 | 8.0 | 0.00 | 0.00 | 0.00 | 80 | 1012.2 |
| 20260503070145 | 61 | 105 | 3.0 | 6.0 | 0.00 | 0.00 | 0.00 | 83 | 1012.3 |
| 20260503054945 | 63 | 133 | 4.0 | 8.0 | 0.00 | 0.00 | 0.00 | 79 | 1012.3 |
| 20260503054045 | 63 | 49 | 6.0 | 10.0 | 0.00 | 0.00 | 0.00 | 79 | 1012.1 |
| 20260503052245 | 65 | 49 | 8.0 | 14.0 | 0.00 | 0.00 | 0.00 | 76 | 1011.8 |
| 20260503051345 | 65 | 64 | 6.0 | 10.0 | 0.00 | 0.00 | 0.00 | 76 | 1012.1 |
| 20260503045545 | 64 | 24 | 4.0 | 6.0 | 0.00 | 0.00 | 0.00 | 77 | 1012.3 |
| 20260503043745 | 64 | 38 | 4.0 | 6.0 | 0.00 | 0.00 | 0.00 | 79 | 1012.4 |
| 20260503042845 | 63 | 109 | 1.0 | 3.0 | 0.00 | 0.00 | 0.00 | 78 | 1012.6 |
| 20260503041045 | 64 | 40 | 5.0 | 7.0 | 0.00 | 0.00 | 0.00 | 77 | 1012.4 |
| 20260503040145 | 64 | 41 | 4.0 | 7.0 | 0.00 | 0.00 | 0.00 | 76 | 1012.4 |
| 20260503034345 | 64 | 39 | 3.0 | 5.0 | 0.00 | 0.00 | 0.00 | 77 | 1012.3 |
| 20260503033445 | 65 | 140 | 2.0 | 4.0 | 0.00 | 0.00 | 0.00 | 76 | 1012.3 |
| 20260503032546 | 65 | 218 | 4.0 | 7.0 | 0.00 | 0.00 | 0.00 | 76 | 1012.3 |
| 20260503031645 | 65 | 211 | 6.0 | 8.0 | 0.00 | 0.00 | 0.00 | 76 | 1012.3 |
| 20260503030745 | 66 | 232 | 5.0 | 8.0 | 0.00 | 0.00 | 0.00 | 75 | 1012.2 |
| 20260503025845 | 66 | 235 | 7.0 | 10.0 | 0.00 | 0.00 | 0.00 | 73 | 1012.1 |
| 20260503024945 | 67 | 227 | 8.0 | 13.0 | 0.00 | 0.00 | 0.00 | 71 | 1012.0 |
| 20260503024045 | 67 | 225 | 8.0 | 14.0 | 0.00 | 0.00 | 0.00 | 70 | 1011.9 |
| 20260503023145 | 68 | 228 | 8.0 | 14.0 | 0.00 | 0.00 | 0.00 | 71 | 1011.8 |
| 20260503022245 | 68 | 231 | 8.0 | 14.0 | 0.00 | 0.00 | 0.00 | 72 | 1011.9 |
| 20260503021345 | 68 | 228 | 6.0 | 9.0 | 0.00 | 0.00 | 0.00 | 72 | 1011.7 |
| 20260503020445 | 68 | 210 | 5.0 | 8.0 | 0.00 | 0.00 | 0.00 | 71 | 1011.3 |
| 20260503014645 | 68 | 194 | 5.0 | 7.0 | 0.00 | 0.00 | 0.00 | 69 | 1011.1 |
| 20260503012845 | 69 | 203 | 4.0 | 6.0 | 0.00 | 0.00 | 0.00 | 69 | 1011.0 |
| 20260503011945 | 69 | 208 | 4.0 | 6.0 | 0.00 | 0.00 | 0.00 | 68 | 1011.1 |
| 20260503011045 | 70 | 223 | 3.0 | 5.0 | 0.00 | 0.00 | 0.00 | 68 | 1011.1 |
| 20260503010145 | 70 | 218 | 3.0 | 5.0 | 0.00 | 0.00 | 0.00 | 67 | 1011.0 |
| 20260503005245 | 70 | 233 | 2.0 | 4.0 | 0.00 | 0.00 | 0.00 | 66 | 1011.1 |
| 20260503004345 | 70 | 215 | 2.0 | 4.0 | 0.00 | 0.00 | 0.00 | 66 | 1011.1 |
| 20260503002024 | 69 | 265 | 2.0 | 4.0 | 0.00 | 0.00 | 0.00 | 68 | 1011.1 |
| 20260503001124 | 69 | 252 | 3.0 | 6.0 | 0.00 | 0.00 | 0.00 | 68 | 1011.1 |
| 20260503000226 | 69 | 253 | 4.0 | 7.0 | 0.00 | 0.00 | 0.00 | 68 | 1011.2 |
| 20260502235325 | 69 | 282 | 3.0 | 7.0 | 0.00 | 0.00 | 0.00 | 68 | 1011.2 |
| 20260502234425 | 68 | 330 | 3.0 | 6.0 | 0.00 | 0.00 | 0.00 | 68 | 1011.1 |
| 20260502233525 | 68 | 330 | 4.0 | 8.0 | 0.00 | 0.00 | 0.00 | 70 | 1011.2 |
| 20260502232624 | 68 | 317 | 4.0 | 8.0 | 0.00 | 0.00 | 0.00 | 70 | 1011.3 |
| 20260502231724 | 67 | 329 | 4.0 | 8.0 | 0.00 | 0.00 | 0.00 | 70 | 1011.6 |
| 20260502230825 | 67 | 331 | 4.0 | 8.0 | 0.00 | 0.00 | 0.00 | 69 | 1011.6 |
| 20260502225924 | 67 | 356 | 4.0 | 8.0 | 0.00 | 0.00 | 0.00 | 71 | 1011.7 |
| 20260502225025 | 66 | 346 | 6.0 | 9.0 | 0.00 | 0.00 | 0.00 | 71 | 1011.8 |
| 20260502224125 | 66 | 350 | 4.0 | 8.0 | 0.00 | 0.00 | 0.00 | 71 | 1012.0 |
| 20260502223224 | 66 | 13 | 4.0 | 8.0 | 0.00 | 0.00 | 0.00 | 71 | 1012.2 |
| 20260502222325 | 66 | 354 | 4.0 | 7.0 | 0.00 | 0.00 | 0.00 | 70 | 1012.3 |
| 20260502221424 | 66 | 358 | 3.0 | 9.0 | 0.00 | 0.00 | 0.00 | 71 | 1012.5 |
| 20260502220524 | 65 | 337 | 3.0 | 7.0 | 0.00 | 0.00 | 0.00 | 73 | 1012.6 |
| 20260502215625 | 63 | 332 | 5.0 | 8.0 | 0.00 | 0.00 | 0.00 | 74 | 1012.8 |
| 20260502214724 | 64 | 354 | 3.0 | 7.0 | 0.00 | 0.00 | 0.00 | 74 | 1012.9 |
| 20260502213824 | 62 | 30 | 4.0 | 9.0 | 0.00 | 0.00 | 0.00 | 75 | 1013.0 |
| 20260502212924 | 62 | 13 | 4.0 | 7.0 | 0.00 | 0.00 | 0.00 | 75 | 1013.1 |
| 20260502212024 | 62 | 28 | 3.0 | 6.0 | 0.00 | 0.00 | 0.00 | 75 | 1013.3 |
| 20260502211124 | 62 | 42 | 4.0 | 8.0 | 0.00 | 0.00 | 0.00 | 76 | 1013.3 |
| 20260502210224 | 61 | 352 | 5.0 | 8.0 | 0.00 | 0.00 | 0.00 | 77 | 1013.6 |
| 20260502205324 | 61 | 14 | 4.0 | 8.0 | 0.00 | 0.00 | 0.00 | 77 | 1013.8 |
| 20260502204424 | 61 | 16 | 5.0 | 9.0 | 0.00 | 0.00 | 0.00 | 78 | 1013.8 |
| 20260502203524 | 60 | 23 | 4.0 | 9.0 | 0.00 | 0.00 | 0.00 | 77 | 1013.9 |
| 20260502202624 | 61 | 317 | 3.0 | 8.0 | 0.00 | 0.00 | 0.00 | 76 | 1014.1 |
| 20260502201725 | 61 | 309 | 3.0 | 8.0 | 0.00 | 0.00 | 0.00 | 76 | 1014.2 |
| 20260502200826 | 60 | 3 | 2.0 | 6.0 | 0.00 | 0.00 | 0.00 | 79 | 1014.4 |
| 20260502195924 | 58 | 10 | 3.0 | 6.0 | 0.00 | 0.00 | 0.00 | 81 | 1014.4 |
| 20260502195025 | 58 | 15 | 4.0 | 8.0 | 0.00 | 0.00 | 0.00 | 81 | 1014.5 |
| 20260502194125 | 58 | 307 | 3.0 | 8.0 | 0.00 | 0.00 | 0.00 | 81 | 1014.7 |
| 20260502193224 | 58 | 263 | 3.0 | 8.0 | 0.00 | 0.00 | 0.00 | 82 | 1014.7 |
| 20260502192324 | 56 | 257 | 5.0 | 8.0 | 0.00 | 0.00 | 0.00 | 83 | 1014.7 |
| 20260502191424 | 56 | 258 | 6.0 | 10.0 | 0.00 | 0.00 | 0.00 | 84 | 1014.7 |